Simultaneous Nadir Overpasses (SNOs) Predictions

Prediction of SNOs between GOES-16 and TERRA Satellite Orbit:

Table of predicted SNOs for the next 14.0 days since TLE Epoch: 10/5/2024
Index Date Time (GOES-16) GOES-16 Lat,Lon TERRA Lat,Lon Distance(km) Time Diff (sec)
1 10/06/2024 02:35:04 0.07, -75.20 0.42, -73.46 197.29 80
2 10/06/2024 14:52:11 -0.07, -75.21 0.59, -78.27 348.21 80
3 10/08/2024 14:36:56 -0.07, -75.22 -0.31, -73.95 143.34 80
4 10/09/2024 02:54:12 0.07, -75.21 -0.68, -78.80 408.44 80
5 10/11/2024 02:38:55 0.06, -75.22 0.24, -74.48 84.46 80
6 10/11/2024 14:56:01 -0.06, -75.23 0.78, -79.28 460.45 80
7 10/13/2024 14:38:02 -0.05, -75.24 -0.14, -74.95 34.07 80
8 10/16/2024 02:42:35 0.05, -75.26 0.04, -75.45 20.72 80
9 10/18/2024 02:24:32 0.05, -75.29 0.95, -71.09 476.93 80
10 10/18/2024 14:44:16 -0.05, -75.30 0.05, -75.90 66.97 80
